TimeEST,TemperatureF,Dew PointF,Humidity,Sea Level PressureIn,VisibilityMPH,Wind Direction,Wind SpeedMPH,Gust SpeedMPH,PrecipitationIn,Events,Conditions,WindDirDegrees,DateUTC
12:15 AM,37.4,35.6,93,30.34,8.0,Calm,Calm,-,0.00,,Clear,0,2013-01-05 05:15:00
12:35 AM,37.4,33.8,87,30.33,8.0,Calm,Calm,-,0.00,,Clear,0,2013-01-05 05:35:00
12:55 AM,37.4,35.6,93,30.33,10.0,Calm,Calm,-,0.00,,Clear,0,2013-01-05 05:55:00
1:15 AM,35.6,33.8,93,30.32,9.0,Calm,Calm,-,0.00,,Clear,0,2013-01-05 06:15:00
1:55 AM,37.4,33.8,87,30.32,10.0,Calm,Calm,-,0.00,,Clear,0,2013-01-05 06:55:00
2:15 AM,37.4,33.8,87,30.32,10.0,Calm,Calm,-,0.00,,Clear,0,2013-01-05 07:15:00
2:35 AM,37.4,35.6,93,30.32,10.0,Calm,Calm,-,0.00,,Clear,0,2013-01-05 07:35:00
2:55 AM,35.6,33.8,93,30.32,9.0,Calm,Calm,-,0.00,,Clear,0,2013-01-05 07:55:00
3:15 AM,35.6,33.8,93,30.32,7.0,Calm,Calm,-,0.00,,Clear,0,2013-01-05 08:15:00
3:35 AM,35.6,33.8,93,30.33,8.0,Calm,Calm,-,0.00,,Clear,0,2013-01-05 08:35:00
3:55 AM,35.6,33.8,93,30.33,7.0,Calm,Calm,-,0.00,,Clear,0,2013-01-05 08:55:00
4:15 AM,33.8,32.0,93,30.32,6.0,Calm,Calm,-,0.00,,Clear,0,2013-01-05 09:15:00
4:35 AM,35.6,33.8,93,30.33,7.0,NW,5.8,-,0.00,,Clear,320,2013-01-05 09:35:00
5:15 AM,37.4,35.6,93,30.33,8.0,North,5.8,-,0.00,,Clear,350,2013-01-05 10:15:00
5:35 AM,37.4,35.6,93,30.34,7.0,North,9.2,-,0.00,,Clear,360,2013-01-05 10:35:00
5:55 AM,39.2,35.6,87,30.34,10.0,North,8.1,-,0.00,,Clear,10,2013-01-05 10:55:00
6:15 AM,37.4,33.8,87,30.35,10.0,North,6.9,-,0.00,,Clear,10,2013-01-05 11:15:00
6:35 AM,37.4,32.0,81,30.36,10.0,North,5.8,-,0.00,,Clear,10,2013-01-05 11:35:00
6:55 AM,37.4,32.0,81,30.36,10.0,North,5.8,-,0.00,,Clear,360,2013-01-05 11:55:00
7:15 AM,37.4,32.0,81,30.36,10.0,North,6.9,-,0.00,,Clear,360,2013-01-05 12:15:00
7:35 AM,37.4,32.0,81,30.37,10.0,North,6.9,-,0.00,,Clear,360,2013-01-05 12:35:00
7:55 AM,37.4,32.0,81,30.38,10.0,North,6.9,-,0.00,,Clear,360,2013-01-05 12:55:00
8:15 AM,39.2,32.0,75,30.39,10.0,North,8.1,-,0.00,,Clear,360,2013-01-05 13:15:00
8:35 AM,39.2,32.0,75,30.39,10.0,NNE,8.1,-,0.00,,Clear,20,2013-01-05 13:35:00
9:15 AM,42.8,30.2,61,30.41,10.0,NNE,9.2,-,0.00,,Clear,30,2013-01-05 14:15:00
9:35 AM,44.6,32.0,61,30.41,10.0,NNE,9.2,-,0.00,,Clear,20,2013-01-05 14:35:00
10:15 AM,46.4,28.4,50,30.42,10.0,North,6.9,-,0.00,,Clear,10,2013-01-05 15:15:00
10:35 AM,48.2,28.4,46,30.41,10.0,North,6.9,-,0.00,,Clear,10,2013-01-05 15:35:00
10:55 AM,48.2,28.4,46,30.41,10.0,NE,5.8,-,0.00,,Clear,40,2013-01-05 15:55:00
11:15 AM,50.0,28.4,43,30.40,10.0,NE,6.9,-,0.00,,Clear,40,2013-01-05 16:15:00
11:35 AM,51.8,28.4,41,30.39,10.0,NNE,6.9,-,0.00,,Clear,20,2013-01-05 16:35:00
11:55 AM,51.8,28.4,41,30.39,10.0,NNE,6.9,-,0.00,,Clear,20,2013-01-05 16:55:00
12:15 PM,53.6,30.2,41,30.38,10.0,NNE,5.8,-,0.00,,Clear,30,2013-01-05 17:15:00
12:35 PM,53.6,30.2,41,30.36,10.0,NE,4.6,-,0.00,,Clear,50,2013-01-05 17:35:00
12:55 PM,53.6,30.2,41,30.35,10.0,East,6.9,-,0.00,,Clear,100,2013-01-05 17:55:00
1:15 PM,53.6,32.0,44,30.35,10.0,East,6.9,-,0.00,,Clear,100,2013-01-05 18:15:00
1:35 PM,53.6,32.0,44,30.34,10.0,Calm,Calm,-,0.00,,Clear,0,2013-01-05 18:35:00
1:55 PM,53.6,32.0,44,30.33,10.0,East,5.8,-,0.00,,Clear,80,2013-01-05 18:55:00
2:15 PM,53.6,32.0,44,30.33,10.0,Calm,Calm,-,0.00,,Clear,0,2013-01-05 19:15:00
2:35 PM,53.6,33.8,47,30.32,10.0,East,4.6,-,0.00,,Partly Cloudy,100,2013-01-05 19:35:00
2:55 PM,53.6,33.8,47,30.32,10.0,East,6.9,-,0.00,,Clear,90,2013-01-05 19:55:00
3:15 PM,53.6,33.8,47,30.32,10.0,East,5.8,-,0.00,,Clear,90,2013-01-05 20:15:00
3:35 PM,53.6,35.6,51,30.32,10.0,East,6.9,-,0.00,,Partly Cloudy,90,2013-01-05 20:35:00
4:15 PM,51.8,35.6,54,30.32,10.0,East,6.9,-,0.00,,Clear,80,2013-01-05 21:15:00
4:35 PM,51.8,37.4,58,30.33,10.0,ENE,5.8,-,0.00,,Clear,60,2013-01-05 21:35:00
4:55 PM,51.8,37.4,58,30.33,10.0,East,5.8,-,0.00,,Clear,80,2013-01-05 21:55:00
5:35 PM,48.2,37.4,66,30.33,10.0,Calm,Calm,-,0.00,,Clear,0,2013-01-05 22:35:00
5:55 PM,46.4,39.2,76,30.33,10.0,Calm,Calm,-,0.00,,Clear,0,2013-01-05 22:55:00
6:15 PM,48.2,39.2,71,30.33,10.0,Calm,Calm,-,0.00,,Clear,0,2013-01-05 23:15:00
6:35 PM,46.4,39.2,76,30.33,10.0,Calm,Calm,-,0.00,,Clear,0,2013-01-05 23:35:00
6:55 PM,48.2,39.2,71,30.33,10.0,Calm,Calm,-,0.00,,Clear,0,2013-01-05 23:55:00
7:15 PM,48.2,39.2,71,30.33,10.0,Calm,Calm,-,0.00,,Clear,0,2013-01-06 00:15:00
7:35 PM,46.4,39.2,76,30.34,10.0,Calm,Calm,-,0.00,,Clear,0,2013-01-06 00:35:00
7:55 PM,46.4,39.2,76,30.33,10.0,Calm,Calm,-,0.00,,Clear,0,2013-01-06 00:55:00
8:15 PM,46.4,39.2,76,30.34,10.0,Calm,Calm,-,0.00,,Clear,0,2013-01-06 01:15:00
8:35 PM,46.4,39.2,76,30.32,10.0,Calm,Calm,-,0.00,,Clear,0,2013-01-06 01:35:00
8:55 PM,46.4,39.2,76,30.32,10.0,Calm,Calm,-,0.00,,Clear,0,2013-01-06 01:55:00
9:15 PM,46.4,39.2,76,30.33,10.0,Calm,Calm,-,0.00,,Clear,0,2013-01-06 02:15:00
9:55 PM,44.6,39.2,81,30.32,10.0,Calm,Calm,-,0.00,,Clear,0,2013-01-06 02:55:00
10:15 PM,44.6,39.2,81,30.32,10.0,Calm,Calm,-,0.00,,Clear,0,2013-01-06 03:15:00
10:35 PM,44.6,39.2,81,30.30,10.0,Calm,Calm,-,0.00,,Clear,0,2013-01-06 03:35:00
10:55 PM,44.6,39.2,81,30.30,10.0,Calm,Calm,-,0.00,,Clear,0,2013-01-06 03:55:00
11:15 PM,44.6,39.2,81,30.31,10.0,Calm,Calm,-,0.00,,Clear,0,2013-01-06 04:15:00
11:35 PM,46.4,41.0,81,30.30,10.0,Calm,Calm,-,0.00,,Clear,0,2013-01-06 04:35:00